Time,TemperatureF,DewpointF,PressureIn,WindDirection,WindDirectionDegrees,WindSpeedMPH,WindSpeedGustMPH,Humidity,HourlyPrecipIn,Conditions,Clouds,dailyrainin,SoftwareType,DateUTC
2013-03-10 00:03:00,35.6,32.4,30.41,North,-999,0.0,0.0,88,0.00,,,-99.99,FreeWX-Wi 1.01,2013-03-10 08:03:00,
2013-03-10 00:08:00,36.0,32.7,30.41,North,-999,0.0,0.0,88,0.00,,,-99.99,FreeWX-Wi 1.01,2013-03-10 08:08:00,
2013-03-10 00:13:00,36.1,32.9,30.41,North,-999,0.0,0.0,88,0.00,,,-99.99,FreeWX-Wi 1.01,2013-03-10 08:13:00,
2013-03-10 00:18:00,36.1,33.3,30.41,North,-999,0.0,0.0,89,0.00,,,-99.99,FreeWX-Wi 1.01,2013-03-10 08:18:00,
2013-03-10 00:23:00,35.8,32.5,30.41,North,-999,0.0,0.0,88,0.00,,,-99.99,FreeWX-Wi 1.01,2013-03-10 08:23:00,
2013-03-10 00:28:00,35.6,32.4,-100.00,North,-999,0.0,0.0,88,0.00,,,-99.99,FreeWX-Wi 1.01,2013-03-10 08:28:00,
2013-03-10 00:33:00,35.2,32.4,30.41,North,-999,0.0,0.0,89,0.00,,,-99.99,FreeWX-Wi 1.01,2013-03-10 08:33:00,
2013-03-10 00:43:00,35.1,32.2,30.41,North,-999,0.0,0.0,89,0.00,,,-99.99,FreeWX-Wi 1.01,2013-03-10 08:43:00,
2013-03-10 00:48:00,34.9,32.0,30.41,North,-999,0.0,0.0,89,0.00,,,-99.99,FreeWX-Wi 1.01,2013-03-10 08:48:00,
2013-03-10 00:53:00,34.9,32.2,30.41,North,-999,0.0,0.0,90,0.00,,,-99.99,FreeWX-Wi 1.01,2013-03-10 08:53:00,
2013-03-10 00:58:00,34.7,32.0,30.44,North,-999,0.0,0.0,90,0.00,,,-99.99,FreeWX-Wi 1.01,2013-03-10 08:58:00,
2013-03-10 01:03:00,34.5,31.8,30.44,North,-999,0.0,0.0,90,0.00,,,-99.99,FreeWX-Wi 1.01,2013-03-10 09:03:00,
2013-03-10 01:08:00,34.5,31.8,30.44,North,-999,0.0,0.0,90,0.00,,,-99.99,FreeWX-Wi 1.01,2013-03-10 09:08:00,
2013-03-10 01:13:00,34.5,32.2,30.44,North,-999,0.0,0.0,91,0.00,,,-99.99,FreeWX-Wi 1.01,2013-03-10 09:13:00,
2013-03-10 01:18:00,34.5,32.2,30.44,North,-999,0.0,0.0,91,0.00,,,-99.99,FreeWX-Wi 1.01,2013-03-10 09:18:00,
2013-03-10 01:23:00,34.5,32.2,30.44,North,-999,0.0,0.0,91,0.00,,,-99.99,FreeWX-Wi 1.01,2013-03-10 09:23:00,
2013-03-10 01:28:00,34.3,32.0,30.44,North,-999,0.0,0.0,91,0.00,,,-99.99,FreeWX-Wi 1.01,2013-03-10 09:28:00,
2013-03-10 01:33:00,34.3,32.0,30.44,North,-999,0.0,0.0,91,0.00,,,-99.99,FreeWX-Wi 1.01,2013-03-10 09:33:00,
2013-03-10 01:38:00,34.3,32.2,30.44,North,-999,0.0,0.0,92,0.00,,,-99.99,FreeWX-Wi 1.01,2013-03-10 09:38:00,
2013-03-10 01:43:00,34.5,32.4,30.44,North,-999,0.0,0.0,92,0.00,,,-99.99,FreeWX-Wi 1.01,2013-03-10 09:43:00,
2013-03-10 01:48:00,34.5,32.7,30.44,North,-999,0.0,0.0,93,0.00,,,-99.99,FreeWX-Wi 1.01,2013-03-10 09:48:00,
2013-03-10 01:53:00,34.5,32.7,30.44,North,-999,0.0,0.0,93,0.00,,,-99.99,FreeWX-Wi 1.01,2013-03-10 09:53:00,
2013-03-10 01:58:00,34.3,32.5,30.44,North,-999,0.0,0.0,93,0.00,,,-99.99,FreeWX-Wi 1.01,2013-03-10 09:58:00,
2013-03-10 03:03:00,34.3,32.5,30.44,North,-999,0.0,0.0,93,0.00,,,-99.99,FreeWX-Wi 1.01,2013-03-10 10:03:00,
2013-03-10 03:08:00,34.3,32.5,30.44,North,-999,0.0,0.0,93,0.00,,,-99.99,FreeWX-Wi 1.01,2013-03-10 10:08:00,
2013-03-10 03:13:00,34.3,32.5,30.47,North,-999,0.0,0.0,93,0.00,,,-99.99,FreeWX-Wi 1.01,2013-03-10 10:13:00,
2013-03-10 03:18:00,34.3,32.5,30.47,North,-999,0.0,0.0,93,0.00,,,-99.99,FreeWX-Wi 1.01,2013-03-10 10:18:00,
2013-03-10 03:23:00,34.5,32.9,30.47,North,-999,0.0,0.0,94,0.00,,,-99.99,FreeWX-Wi 1.01,2013-03-10 10:23:00,
2013-03-10 03:28:00,34.5,32.9,30.47,North,-999,0.0,0.0,94,0.00,,,-99.99,FreeWX-Wi 1.01,2013-03-10 10:28:00,
2013-03-10 03:33:00,34.7,33.4,30.47,North,-999,0.0,0.0,95,0.00,,,-99.99,FreeWX-Wi 1.01,2013-03-10 10:33:00,
2013-03-10 03:38:00,34.9,33.6,30.47,North,-999,0.0,0.0,95,0.00,,,-99.99,FreeWX-Wi 1.01,2013-03-10 10:38:00,
2013-03-10 03:43:00,35.1,33.8,30.47,North,-999,0.0,0.0,95,0.00,,,-99.99,FreeWX-Wi 1.01,2013-03-10 10:43:00,
2013-03-10 03:48:00,34.9,33.6,30.47,North,-999,0.0,0.0,95,0.00,,,-99.99,FreeWX-Wi 1.01,2013-03-10 10:48:00,
2013-03-10 03:53:00,34.9,33.6,30.47,North,-999,0.0,0.0,95,0.00,,,-99.99,FreeWX-Wi 1.01,2013-03-10 10:53:00,
2013-03-10 03:58:00,35.1,34.0,30.50,North,-999,0.0,0.0,96,0.00,,,-99.99,FreeWX-Wi 1.01,2013-03-10 10:58:00,
2013-03-10 04:03:00,35.1,34.0,30.50,North,-999,0.0,0.0,96,0.00,,,-99.99,FreeWX-Wi 1.01,2013-03-10 11:03:00,
2013-03-10 04:08:00,35.2,34.2,30.50,North,-999,0.0,0.0,96,0.00,,,-99.99,FreeWX-Wi 1.01,2013-03-10 11:08:00,
2013-03-10 04:13:00,35.2,34.2,30.50,North,-999,0.0,0.0,96,0.00,,,-99.99,FreeWX-Wi 1.01,2013-03-10 11:13:00,
2013-03-10 04:18:00,35.1,34.0,30.50,North,-999,0.0,0.0,96,0.00,,,-99.99,FreeWX-Wi 1.01,2013-03-10 11:18:00,
2013-03-10 04:23:00,34.9,33.8,30.50,North,-999,0.0,0.0,96,0.00,,,-99.99,FreeWX-Wi 1.01,2013-03-10 11:23:00,
2013-03-10 04:28:00,34.7,33.6,30.50,North,-999,0.0,0.0,96,0.00,,,-99.99,FreeWX-Wi 1.01,2013-03-10 11:28:00,
2013-03-10 04:33:00,34.5,33.4,30.50,North,-999,0.0,0.0,96,0.00,,,-99.99,FreeWX-Wi 1.01,2013-03-10 11:33:00,
2013-03-10 04:38:00,34.7,34.0,30.50,North,-999,0.0,0.0,97,0.00,,,-99.99,FreeWX-Wi 1.01,2013-03-10 11:38:00,
2013-03-10 04:43:00,34.9,34.2,30.50,North,-999,0.0,0.0,97,0.00,,,-99.99,FreeWX-Wi 1.01,2013-03-10 11:43:00,
2013-03-10 04:48:00,35.1,34.3,30.50,North,-999,0.0,0.0,97,0.00,,,-99.99,FreeWX-Wi 1.01,2013-03-10 11:48:00,
2013-03-10 04:53:00,35.4,34.7,30.50,North,-999,0.0,0.0,97,0.00,,,-99.99,FreeWX-Wi 1.01,2013-03-10 11:53:00,
2013-03-10 04:58:00,35.6,34.9,30.50,North,-999,0.0,0.0,97,0.00,,,-99.99,FreeWX-Wi 1.01,2013-03-10 11:58:00,
2013-03-10 05:03:00,35.8,35.1,30.50,North,-999,0.0,0.0,97,0.00,,,-99.99,FreeWX-Wi 1.01,2013-03-10 12:03:00,
2013-03-10 05:08:00,36.0,35.2,30.50,North,-999,0.0,0.0,97,0.00,,,-99.99,FreeWX-Wi 1.01,2013-03-10 12:08:00,
2013-03-10 05:13:00,36.0,35.2,30.53,North,-999,0.0,0.0,97,0.00,,,-99.99,FreeWX-Wi 1.01,2013-03-10 12:13:00,
2013-03-10 05:18:00,36.1,35.4,30.53,North,-999,0.0,0.0,97,0.00,,,-99.99,FreeWX-Wi 1.01,2013-03-10 12:18:00,
2013-03-10 05:23:00,36.1,35.4,30.53,North,-999,0.0,0.0,97,0.00,,,-99.99,FreeWX-Wi 1.01,2013-03-10 12:23:00,
2013-03-10 05:28:00,36.3,35.8,30.53,North,-999,0.0,0.0,98,0.00,,,-99.99,FreeWX-Wi 1.01,2013-03-10 12:28:00,
2013-03-10 05:33:00,36.5,36.0,30.53,North,-999,0.0,0.0,98,0.00,,,-99.99,FreeWX-Wi 1.01,2013-03-10 12:33:00,
2013-03-10 05:38:00,36.7,36.1,30.53,North,-999,0.0,0.0,98,0.00,,,-99.99,FreeWX-Wi 1.01,2013-03-10 12:38:00,
2013-03-10 05:44:00,36.7,36.1,30.56,North,-999,0.0,0.0,98,0.00,,,-99.99,FreeWX-Wi 1.01,2013-03-10 12:44:00,
2013-03-10 05:49:00,36.9,36.3,30.56,North,-999,0.0,0.0,98,0.00,,,-99.99,FreeWX-Wi 1.01,2013-03-10 12:49:00,
2013-03-10 05:54:00,36.9,36.3,30.56,North,-999,0.0,0.0,98,0.00,,,-99.99,FreeWX-Wi 1.01,2013-03-10 12:54:00,
2013-03-10 05:59:00,37.0,36.5,30.59,North,-999,0.0,0.0,98,0.00,,,-99.99,FreeWX-Wi 1.01,2013-03-10 12:59:00,
2013-03-10 06:04:00,37.0,36.5,30.59,North,-999,0.0,0.0,98,0.00,,,-99.99,FreeWX-Wi 1.01,2013-03-10 13:04:00,
2013-03-10 06:09:00,36.9,36.3,30.59,North,-999,0.0,0.0,98,0.00,,,-99.99,FreeWX-Wi 1.01,2013-03-10 13:09:00,
2013-03-10 06:14:00,36.9,36.3,30.59,North,-999,0.0,0.0,98,0.00,,,-99.99,FreeWX-Wi 1.01,2013-03-10 13:14:00,
2013-03-10 06:19:00,36.9,36.3,30.59,North,-999,0.0,0.0,98,0.00,,,-99.99,FreeWX-Wi 1.01,2013-03-10 13:19:00,
2013-03-10 06:24:00,36.9,36.3,30.59,North,-999,0.0,0.0,98,0.00,,,-99.99,FreeWX-Wi 1.01,2013-03-10 13:24:00,
2013-03-10 06:29:00,36.9,36.3,30.56,North,-999,0.0,0.0,98,0.00,,,-99.99,FreeWX-Wi 1.01,2013-03-10 13:29:00,
2013-03-10 06:34:00,36.9,36.3,30.56,North,-999,0.0,0.0,98,0.00,,,-99.99,FreeWX-Wi 1.01,2013-03-10 13:34:00,
2013-03-10 06:39:00,36.9,36.3,30.56,North,-999,0.0,0.0,98,0.00,,,-99.99,FreeWX-Wi 1.01,2013-03-10 13:39:00,
2013-03-10 06:44:00,37.0,36.5,30.50,North,-999,0.0,0.0,98,0.00,,,-99.99,FreeWX-Wi 1.01,2013-03-10 13:44:00,
2013-03-10 06:49:00,37.0,36.5,30.50,North,-999,0.0,0.0,98,0.00,,,-99.99,FreeWX-Wi 1.01,2013-03-10 13:49:00,
2013-03-10 06:54:00,37.0,36.5,30.50,North,-999,0.0,0.0,98,0.00,,,-99.99,FreeWX-Wi 1.01,2013-03-10 13:54:00,
2013-03-10 06:59:00,37.0,36.5,30.44,North,-999,0.0,0.0,98,0.00,,,-99.99,FreeWX-Wi 1.01,2013-03-10 13:59:00,
2013-03-10 07:04:00,37.2,36.7,30.44,North,-999,0.0,0.0,98,0.00,,,-99.99,FreeWX-Wi 1.01,2013-03-10 14:04:00,
2013-03-10 07:09:00,37.2,36.7,30.44,North,-999,0.0,0.0,98,0.00,,,-99.99,FreeWX-Wi 1.01,2013-03-10 14:09:00,
2013-03-10 07:14:00,37.2,36.7,30.41,North,-999,0.0,0.0,98,0.00,,,-99.99,FreeWX-Wi 1.01,2013-03-10 14:14:00,
2013-03-10 07:19:00,37.2,36.7,30.41,North,-999,0.0,0.0,98,0.00,,,-99.99,FreeWX-Wi 1.01,2013-03-10 14:19:00,
2013-03-10 07:24:00,37.2,36.7,30.41,North,-999,0.0,0.0,98,0.00,,,-99.99,FreeWX-Wi 1.01,2013-03-10 14:24:00,
2013-03-10 07:29:00,37.2,36.7,30.41,North,-999,0.0,0.0,98,0.00,,,-99.99,FreeWX-Wi 1.01,2013-03-10 14:29:00,
2013-03-10 07:34:00,37.2,36.7,30.41,North,-999,0.0,0.0,98,0.00,,,-99.99,FreeWX-Wi 1.01,2013-03-10 14:34:00,
2013-03-10 07:39:00,37.2,36.7,30.41,North,-999,0.0,0.0,98,0.00,,,-99.99,FreeWX-Wi 1.01,2013-03-10 14:39:00,
2013-03-10 07:44:00,37.2,36.7,30.41,North,-999,0.0,0.0,98,0.00,,,-99.99,FreeWX-Wi 1.01,2013-03-10 14:44:00,
2013-03-10 07:49:00,37.4,36.9,30.41,North,-999,0.0,0.0,98,0.00,,,-99.99,FreeWX-Wi 1.01,2013-03-10 14:49:00,
2013-03-10 07:54:00,37.4,36.9,30.41,North,-999,0.0,0.0,98,0.00,,,-99.99,FreeWX-Wi 1.01,2013-03-10 14:54:00,
2013-03-10 07:59:00,37.4,36.9,30.39,North,-999,0.0,0.0,98,0.00,,,-99.99,FreeWX-Wi 1.01,2013-03-10 14:59:00,
2013-03-10 08:04:00,37.6,37.0,30.39,North,-999,0.0,0.0,98,0.00,,,-99.99,FreeWX-Wi 1.01,2013-03-10 15:04:00,
2013-03-10 08:09:00,37.6,37.0,30.39,North,-999,0.0,0.0,98,0.00,,,-99.99,FreeWX-Wi 1.01,2013-03-10 15:09:00,
2013-03-10 08:14:00,37.8,37.2,30.39,North,-999,0.0,0.0,98,0.00,,,-99.99,FreeWX-Wi 1.01,2013-03-10 15:14:00,
2013-03-10 08:19:00,37.9,37.4,30.39,North,-999,0.0,0.0,98,0.00,,,-99.99,FreeWX-Wi 1.01,2013-03-10 15:19:00,
2013-03-10 08:24:00,38.1,37.6,30.39,North,-999,0.0,0.0,98,0.00,,,-99.99,FreeWX-Wi 1.01,2013-03-10 15:24:00,
2013-03-10 08:29:00,38.1,37.6,30.41,North,-999,0.0,0.0,98,0.00,,,-99.99,FreeWX-Wi 1.01,2013-03-10 15:29:00,
2013-03-10 08:34:00,38.3,37.8,30.41,North,-999,0.0,0.0,98,0.00,,,-99.99,FreeWX-Wi 1.01,2013-03-10 15:34:00,
2013-03-10 08:39:00,38.5,37.9,30.41,North,-999,0.0,0.0,98,0.00,,,-99.99,FreeWX-Wi 1.01,2013-03-10 15:39:00,
2013-03-10 08:44:00,38.5,37.9,30.39,North,-999,0.0,0.0,98,0.00,,,-99.99,FreeWX-Wi 1.01,2013-03-10 15:44:00,
2013-03-10 08:49:00,38.7,38.1,30.39,North,-999,0.0,0.0,98,0.00,,,-99.99,FreeWX-Wi 1.01,2013-03-10 15:49:00,
2013-03-10 08:54:00,38.8,38.3,30.39,North,-999,0.0,0.0,98,0.00,,,-99.99,FreeWX-Wi 1.01,2013-03-10 15:54:00,
2013-03-10 08:59:00,38.8,38.3,30.39,North,-999,0.0,0.0,98,0.00,,,-99.99,FreeWX-Wi 1.01,2013-03-10 15:59:00,
2013-03-10 09:04:00,39.2,38.7,30.39,North,-999,0.0,0.0,98,0.00,,,-99.99,FreeWX-Wi 1.01,2013-03-10 16:04:00,
2013-03-10 09:09:00,39.4,38.8,30.39,North,-999,0.0,0.0,98,0.00,,,-99.99,FreeWX-Wi 1.01,2013-03-10 16:09:00,
2013-03-10 09:14:00,39.7,39.2,30.39,North,-999,0.0,0.0,98,0.00,,,-99.99,FreeWX-Wi 1.01,2013-03-10 16:14:00,
2013-03-10 09:19:00,40.3,39.7,30.39,North,-999,0.0,0.0,98,0.00,,,-99.99,FreeWX-Wi 1.01,2013-03-10 16:19:00,
2013-03-10 09:24:00,40.6,40.1,30.39,North,-999,0.0,0.0,98,0.00,,,-99.99,FreeWX-Wi 1.01,2013-03-10 16:24:00,
2013-03-10 09:29:00,41.2,40.6,30.39,North,-999,0.0,0.0,98,0.00,,,-99.99,FreeWX-Wi 1.01,2013-03-10 16:29:00,
2013-03-10 09:34:00,41.4,40.8,30.39,North,-999,0.0,0.0,98,0.00,,,-99.99,FreeWX-Wi 1.01,2013-03-10 16:34:00,
2013-03-10 09:39:00,41.7,41.2,30.39,North,-999,0.0,0.0,98,0.00,,,-99.99,FreeWX-Wi 1.01,2013-03-10 16:39:00,
2013-03-10 09:44:00,42.1,41.4,30.39,North,-999,0.0,0.0,97,0.00,,,-99.99,FreeWX-Wi 1.01,2013-03-10 16:44:00,
2013-03-10 09:49:00,42.6,41.9,30.39,North,-999,0.0,0.0,97,0.00,,,-99.99,FreeWX-Wi 1.01,2013-03-10 16:49:00,
2013-03-10 09:54:00,43.0,41.9,30.39,North,-999,0.0,0.0,96,0.00,,,-99.99,FreeWX-Wi 1.01,2013-03-10 16:54:00,
2013-03-10 09:59:00,43.2,41.9,30.39,North,-999,0.0,0.0,95,0.00,,,-99.99,FreeWX-Wi 1.01,2013-03-10 16:59:00,
2013-03-10 10:04:00,43.3,41.7,30.39,North,-999,0.0,0.0,94,0.00,,,-99.99,FreeWX-Wi 1.01,2013-03-10 17:04:00,
2013-03-10 10:09:00,43.5,41.4,30.39,North,-999,0.0,0.0,92,0.00,,,-99.99,FreeWX-Wi 1.01,2013-03-10 17:09:00,
2013-03-10 10:14:00,43.7,41.0,30.41,North,-999,0.0,0.0,90,0.00,,,-99.99,FreeWX-Wi 1.01,2013-03-10 17:14:00,
2013-03-10 10:19:00,43.9,40.8,30.41,North,-999,0.0,0.0,89,0.00,,,-99.99,FreeWX-Wi 1.01,2013-03-10 17:19:00,
2013-03-10 10:24:00,44.4,40.5,30.41,North,-999,0.0,0.0,86,0.00,,,-99.99,FreeWX-Wi 1.01,2013-03-10 17:24:00,
2013-03-10 10:29:00,44.8,39.9,30.41,North,-999,0.0,0.0,83,0.00,,,-99.99,FreeWX-Wi 1.01,2013-03-10 17:29:00,
2013-03-10 10:34:00,44.8,39.0,30.41,North,-999,0.0,0.0,80,0.00,,,-99.99,FreeWX-Wi 1.01,2013-03-10 17:34:00,
2013-03-10 10:39:00,45.1,38.3,30.41,North,-999,0.0,0.0,77,0.00,,,-99.99,FreeWX-Wi 1.01,2013-03-10 17:39:00,
2013-03-10 10:44:00,45.3,38.1,30.41,North,-999,0.0,0.0,76,0.00,,,-99.99,FreeWX-Wi 1.01,2013-03-10 17:44:00,
2013-03-10 10:49:00,45.5,38.1,-100.00,North,-999,0.0,0.0,75,0.00,,,-99.99,FreeWX-Wi 1.01,2013-03-10 17:49:00,
2013-03-10 10:54:00,45.5,37.4,30.41,North,-999,0.0,0.0,73,0.00,,,-99.99,FreeWX-Wi 1.01,2013-03-10 17:54:00,
2013-03-10 10:59:00,45.5,37.0,30.41,North,-999,0.0,0.0,72,0.00,,,-99.99,FreeWX-Wi 1.01,2013-03-10 17:59:00,
2013-03-10 11:04:00,45.5,37.0,30.41,North,-999,0.0,0.0,72,0.00,,,-99.99,FreeWX-Wi 1.01,2013-03-10 18:04:00,
2013-03-10 11:09:00,45.1,36.0,30.41,North,-999,0.0,0.0,70,0.00,,,-99.99,FreeWX-Wi 1.01,2013-03-10 18:09:00,
2013-03-10 11:14:00,45.0,35.8,30.41,North,-999,0.0,0.0,70,0.00,,,-99.99,FreeWX-Wi 1.01,2013-03-10 18:14:00,
2013-03-10 11:19:00,45.1,36.0,30.41,North,-999,0.0,0.0,70,0.00,,,-99.99,FreeWX-Wi 1.01,2013-03-10 18:19:00,
2013-03-10 11:24:00,45.3,36.1,30.41,North,-999,0.0,0.0,70,0.00,,,-99.99,FreeWX-Wi 1.01,2013-03-10 18:24:00,
2013-03-10 11:29:00,45.5,36.7,30.44,North,-999,0.0,0.0,71,0.00,,,-99.99,FreeWX-Wi 1.01,2013-03-10 18:29:00,
2013-03-10 11:34:00,45.5,36.7,30.44,North,-999,0.0,0.0,71,0.00,,,-99.99,FreeWX-Wi 1.01,2013-03-10 18:34:00,
2013-03-10 11:39:00,45.5,36.7,30.44,North,-999,0.0,0.0,71,0.00,,,-99.99,FreeWX-Wi 1.01,2013-03-10 18:39:00,
2013-03-10 11:44:00,45.5,37.0,30.44,North,-999,0.0,0.0,72,0.00,,,-99.99,FreeWX-Wi 1.01,2013-03-10 18:44:00,
2013-03-10 11:49:00,45.5,37.4,30.44,North,-999,0.0,0.0,73,0.00,,,-99.99,FreeWX-Wi 1.01,2013-03-10 18:49:00,
2013-03-10 11:54:00,45.3,37.6,30.44,North,-999,0.0,0.0,74,0.00,,,-99.99,FreeWX-Wi 1.01,2013-03-10 18:54:00,
2013-03-10 11:59:00,45.3,37.9,30.41,North,-999,0.0,0.0,75,0.00,,,-99.99,FreeWX-Wi 1.01,2013-03-10 18:59:00,
2013-03-10 12:04:00,45.5,38.3,30.41,North,-999,0.0,2.7,76,0.00,,,-99.99,FreeWX-Wi 1.01,2013-03-10 19:04:00,
2013-03-10 12:09:00,45.3,38.1,30.41,North,-999,0.0,3.1,76,0.00,,,-99.99,FreeWX-Wi 1.01,2013-03-10 19:09:00,
2013-03-10 12:14:00,45.3,38.1,30.39,North,-999,0.0,2.2,76,0.00,,,-99.99,FreeWX-Wi 1.01,2013-03-10 19:14:00,
2013-03-10 12:19:00,45.3,38.5,30.39,North,-999,0.0,0.0,77,0.00,,,-99.99,FreeWX-Wi 1.01,2013-03-10 19:19:00,
2013-03-10 12:24:00,45.3,38.5,30.39,North,-999,0.0,0.0,77,0.00,,,-99.99,FreeWX-Wi 1.01,2013-03-10 19:24:00,
2013-03-10 12:29:00,45.5,38.7,30.39,North,-999,0.0,2.7,77,0.00,,,-99.99,FreeWX-Wi 1.01,2013-03-10 19:29:00,
2013-03-10 12:34:00,45.7,39.2,30.39,North,-999,0.0,2.7,78,0.00,,,-99.99,FreeWX-Wi 1.01,2013-03-10 19:34:00,
2013-03-10 12:39:00,45.9,39.4,30.39,North,-999,0.0,2.2,78,0.00,,,-99.99,FreeWX-Wi 1.01,2013-03-10 19:39:00,
2013-03-10 12:44:00,46.0,39.6,30.39,North,-999,0.0,2.2,78,0.00,,,-99.99,FreeWX-Wi 1.01,2013-03-10 19:44:00,
2013-03-10 12:49:00,46.0,39.6,30.39,North,-999,0.0,2.7,78,0.00,,,-99.99,FreeWX-Wi 1.01,2013-03-10 19:49:00,
2013-03-10 12:54:00,46.0,39.6,30.39,North,-999,0.0,3.1,78,0.00,,,-99.99,FreeWX-Wi 1.01,2013-03-10 19:54:00,
2013-03-10 12:59:00,46.0,39.6,30.39,North,-999,0.0,2.2,78,0.00,,,-99.99,FreeWX-Wi 1.01,2013-03-10 19:59:00,
2013-03-10 13:04:00,46.2,39.4,30.39,North,-999,0.0,2.2,77,0.00,,,-99.99,FreeWX-Wi 1.01,2013-03-10 20:04:00,
2013-03-10 13:09:00,46.4,39.6,30.39,North,-999,0.0,3.6,77,0.00,,,-99.99,FreeWX-Wi 1.01,2013-03-10 20:09:00,
2013-03-10 13:14:00,46.6,39.7,30.39,North,-999,0.0,3.1,77,0.00,,,-99.99,FreeWX-Wi 1.01,2013-03-10 20:14:00,
2013-03-10 13:19:00,47.1,40.3,30.39,North,-999,0.0,3.1,77,0.00,,,-99.99,FreeWX-Wi 1.01,2013-03-10 20:19:00,
2013-03-10 13:24:00,47.5,40.6,30.39,North,-999,0.0,2.2,77,0.00,,,-99.99,FreeWX-Wi 1.01,2013-03-10 20:24:00,
2013-03-10 13:29:00,48.4,41.2,30.39,North,-999,0.0,2.7,76,0.00,,,-99.99,FreeWX-Wi 1.01,2013-03-10 20:29:00,
2013-03-10 13:35:00,48.9,41.7,30.39,North,-999,0.0,2.7,76,0.00,,,-99.99,FreeWX-Wi 1.01,2013-03-10 20:35:00,
2013-03-10 13:40:00,48.7,40.8,30.39,North,-999,0.0,2.7,74,0.00,,,-99.99,FreeWX-Wi 1.01,2013-03-10 20:40:00,
2013-03-10 13:45:00,48.6,40.6,30.39,North,-999,0.0,2.7,74,0.00,,,-99.99,FreeWX-Wi 1.01,2013-03-10 20:45:00,
2013-03-10 13:50:00,48.7,41.2,30.39,North,-999,0.0,3.6,75,0.00,,,-99.99,FreeWX-Wi 1.01,2013-03-10 20:50:00,
2013-03-10 13:55:00,48.7,40.8,30.39,North,-999,0.0,3.6,74,0.00,,,-99.99,FreeWX-Wi 1.01,2013-03-10 20:55:00,
2013-03-10 14:00:00,48.7,40.8,30.39,North,-999,0.0,3.6,74,0.00,,,-99.99,FreeWX-Wi 1.01,2013-03-10 21:00:00,
2013-03-10 14:05:00,48.6,40.3,30.39,SSE,166,1.0,3.6,73,0.00,,,-99.99,FreeWX-Wi 1.01,2013-03-10 21:05:00,
2013-03-10 14:10:00,48.0,39.4,30.39,SSE,158,1.0,4.0,72,0.00,,,-99.99,FreeWX-Wi 1.01,2013-03-10 21:10:00,
2013-03-10 14:15:00,47.7,38.7,30.39,South,175,1.0,2.7,71,0.00,,,-99.99,FreeWX-Wi 1.01,2013-03-10 21:15:00,
2013-03-10 14:20:00,47.8,39.2,30.39,North,-999,0.0,0.0,72,0.00,,,-99.99,FreeWX-Wi 1.01,2013-03-10 21:20:00,
2013-03-10 14:25:00,47.5,38.8,30.39,South,170,1.0,3.6,72,0.00,,,-99.99,FreeWX-Wi 1.01,2013-03-10 21:25:00,
2013-03-10 14:30:00,47.1,38.5,30.39,South,176,1.0,3.6,72,0.00,,,-99.99,FreeWX-Wi 1.01,2013-03-10 21:30:00,
2013-03-10 14:35:00,47.3,38.7,30.39,South,171,1.0,2.7,72,0.00,,,-99.99,FreeWX-Wi 1.01,2013-03-10 21:35:00,
2013-03-10 14:40:00,47.3,39.0,30.39,South,177,1.0,3.6,73,0.00,,,-99.99,FreeWX-Wi 1.01,2013-03-10 21:40:00,
2013-03-10 14:45:00,47.5,39.2,30.39,South,186,1.0,5.4,73,0.00,,,-99.99,FreeWX-Wi 1.01,2013-03-10 21:45:00,
2013-03-10 14:50:00,47.5,39.6,30.39,South,190,1.0,4.0,74,0.00,,,-99.99,FreeWX-Wi 1.01,2013-03-10 21:50:00,
2013-03-10 14:55:00,47.5,39.6,30.36,South,190,1.0,3.6,74,0.00,,,-99.99,FreeWX-Wi 1.01,2013-03-10 21:55:00,
2013-03-10 15:00:00,47.5,39.6,30.36,South,190,1.0,2.7,74,0.00,,,-99.99,FreeWX-Wi 1.01,2013-03-10 22:00:00,
2013-03-10 15:05:00,47.7,39.7,30.36,South,187,1.0,2.7,74,0.00,,,-99.99,FreeWX-Wi 1.01,2013-03-10 22:05:00,
2013-03-10 15:10:00,47.7,39.7,30.36,South,183,1.0,3.6,74,0.00,,,-99.99,FreeWX-Wi 1.01,2013-03-10 22:10:00,
2013-03-10 15:15:00,47.8,40.3,30.36,South,187,1.0,2.2,75,0.00,,,-99.99,FreeWX-Wi 1.01,2013-03-10 22:15:00,
2013-03-10 15:20:00,47.8,40.3,30.36,North,-999,0.0,4.5,75,0.00,,,-99.99,FreeWX-Wi 1.01,2013-03-10 22:20:00,
2013-03-10 15:25:00,47.5,39.6,30.36,South,180,1.0,3.6,74,0.00,,,-99.99,FreeWX-Wi 1.01,2013-03-10 22:25:00,
2013-03-10 15:30:00,47.5,39.6,30.36,South,188,1.0,4.0,74,0.00,,,-99.99,FreeWX-Wi 1.01,2013-03-10 22:30:00,
2013-03-10 15:35:00,47.5,39.9,30.36,South,187,1.0,2.2,75,0.00,,,-99.99,FreeWX-Wi 1.01,2013-03-10 22:35:00,
2013-03-10 15:40:00,47.5,39.9,30.36,SSW,192,1.0,3.1,75,0.00,,,-99.99,FreeWX-Wi 1.01,2013-03-10 22:40:00,
2013-03-10 15:45:00,47.5,39.9,30.36,SSW,193,1.0,3.1,75,0.00,,,-99.99,FreeWX-Wi 1.01,2013-03-10 22:45:00,
2013-03-10 15:50:00,47.3,39.7,30.36,South,191,1.0,3.6,75,0.00,,,-99.99,FreeWX-Wi 1.01,2013-03-10 22:50:00,
2013-03-10 15:55:00,46.9,39.7,30.36,SSW,195,1.0,3.1,76,0.00,,,-99.99,FreeWX-Wi 1.01,2013-03-10 22:55:00,
2013-03-10 16:00:00,46.8,39.6,30.36,SSW,195,1.0,2.2,76,0.00,,,-99.99,FreeWX-Wi 1.01,2013-03-10 23:00:00,
2013-03-10 16:05:00,46.4,39.2,30.36,North,-999,0.0,2.7,76,0.00,,,-99.99,FreeWX-Wi 1.01,2013-03-10 23:05:00,
2013-03-10 16:10:00,46.0,39.2,30.36,North,-999,0.0,2.7,77,0.00,,,-99.99,FreeWX-Wi 1.01,2013-03-10 23:10:00,
2013-03-10 16:15:00,45.7,39.2,30.36,North,-999,0.0,2.2,78,0.00,,,-99.99,FreeWX-Wi 1.01,2013-03-10 23:15:00,
2013-03-10 16:20:00,45.5,39.4,30.36,North,-999,0.0,3.6,79,0.00,,,-99.99,FreeWX-Wi 1.01,2013-03-10 23:20:00,
2013-03-10 16:25:00,45.3,39.2,30.36,North,-999,0.0,2.2,79,0.00,,,-99.99,FreeWX-Wi 1.01,2013-03-10 23:25:00,
2013-03-10 16:30:00,45.1,39.4,30.36,North,-999,0.0,2.2,80,0.00,,,-99.99,FreeWX-Wi 1.01,2013-03-10 23:30:00,
2013-03-10 16:35:00,45.1,39.7,30.36,North,-999,0.0,2.2,81,0.00,,,-99.99,FreeWX-Wi 1.01,2013-03-10 23:35:00,
2013-03-10 16:40:00,45.0,39.6,30.36,North,-999,0.0,2.2,81,0.00,,,-99.99,FreeWX-Wi 1.01,2013-03-10 23:40:00,
2013-03-10 16:45:00,45.0,39.7,30.36,North,-999,0.0,3.1,82,0.00,,,-99.99,FreeWX-Wi 1.01,2013-03-10 23:45:00,
2013-03-10 16:50:00,45.0,39.7,30.36,North,-999,0.0,4.0,82,0.00,,,-99.99,FreeWX-Wi 1.01,2013-03-10 23:50:00,
2013-03-10 16:55:00,45.1,40.3,30.36,North,-999,0.0,2.7,83,0.00,,,-99.99,FreeWX-Wi 1.01,2013-03-10 23:55:00,
2013-03-10 17:00:00,45.5,41.0,30.36,North,-999,0.0,3.1,84,0.00,,,-99.99,FreeWX-Wi 1.01,2013-03-11 00:00:00,
2013-03-10 17:05:00,45.7,41.2,30.36,North,-999,0.0,3.6,84,0.00,,,-99.99,FreeWX-Wi 1.01,2013-03-11 00:05:00,
2013-03-10 17:10:00,45.9,41.4,30.36,North,-999,0.0,3.1,84,0.00,,,-99.99,FreeWX-Wi 1.01,2013-03-11 00:10:00,
2013-03-10 17:15:00,45.7,41.2,30.36,ESE,120,1.0,4.0,84,0.00,,,-99.99,FreeWX-Wi 1.01,2013-03-11 00:15:00,
2013-03-10 17:20:00,45.3,40.5,30.36,ESE,102,1.0,0.0,83,0.00,,,-99.99,FreeWX-Wi 1.01,2013-03-11 00:20:00,
2013-03-10 17:25:00,45.1,40.3,30.36,North,-999,0.0,2.7,83,0.00,,,-99.99,FreeWX-Wi 1.01,2013-03-11 00:25:00,
2013-03-10 17:30:00,45.0,40.1,30.36,North,-999,0.0,2.2,83,0.00,,,-99.99,FreeWX-Wi 1.01,2013-03-11 00:30:00,
2013-03-10 17:35:00,44.8,39.9,30.36,East,86,1.0,3.1,83,0.00,,,-99.99,FreeWX-Wi 1.01,2013-03-11 00:35:00,
2013-03-10 17:40:00,44.8,39.9,30.36,North,-999,0.0,0.0,83,0.00,,,-99.99,FreeWX-Wi 1.01,2013-03-11 00:40:00,
2013-03-10 17:45:00,44.6,39.7,30.36,North,-999,0.0,2.2,83,0.00,,,-99.99,FreeWX-Wi 1.01,2013-03-11 00:45:00,
2013-03-10 17:50:00,44.8,40.3,30.36,North,-999,0.0,0.0,84,0.00,,,-99.99,FreeWX-Wi 1.01,2013-03-11 00:50:00,
2013-03-10 17:55:00,44.8,40.3,30.36,North,-999,0.0,0.0,84,0.00,,,-99.99,FreeWX-Wi 1.01,2013-03-11 00:55:00,
2013-03-10 18:00:00,44.8,40.3,30.36,North,-999,0.0,0.0,84,0.00,,,-99.99,FreeWX-Wi 1.01,2013-03-11 01:00:00,
2013-03-10 18:05:00,44.6,40.1,30.36,North,-999,0.0,2.2,84,0.00,,,-99.99,FreeWX-Wi 1.01,2013-03-11 01:05:00,
2013-03-10 18:10:00,44.6,40.1,30.36,North,-999,0.0,0.0,84,0.00,,,-99.99,FreeWX-Wi 1.01,2013-03-11 01:10:00,
2013-03-10 18:15:00,44.6,40.1,-100.00,North,-999,0.0,2.2,84,0.00,,,-99.99,FreeWX-Wi 1.01,2013-03-11 01:15:00,
2013-03-10 18:20:00,44.4,40.3,-100.00,North,-999,0.0,0.0,85,0.00,,,-99.99,FreeWX-Wi 1.01,2013-03-11 01:20:00,
2013-03-10 18:25:00,44.2,40.1,30.36,North,-999,0.0,0.0,85,0.00,,,-99.99,FreeWX-Wi 1.01,2013-03-11 01:25:00,
2013-03-10 18:50:00,44.2,40.1,-100.00,North,-999,0.0,0.0,85,0.00,,,-99.99,FreeWX-Wi 1.01,2013-03-11 01:50:00,
2013-03-10 18:55:00,44.2,40.1,30.36,North,-999,0.0,0.0,85,0.00,,,-99.99,FreeWX-Wi 1.01,2013-03-11 01:55:00,
2013-03-10 19:05:00,44.2,40.3,-100.00,North,-999,0.0,0.0,86,0.00,,,-99.99,FreeWX-Wi 1.01,2013-03-11 02:05:00,
2013-03-10 19:10:00,44.2,40.3,30.36,North,-999,0.0,2.2,86,0.00,,,-99.99,FreeWX-Wi 1.01,2013-03-11 02:10:00,
2013-03-10 19:15:00,44.2,40.6,30.36,North,-999,0.0,2.2,87,0.00,,,-99.99,FreeWX-Wi 1.01,2013-03-11 02:15:00,
2013-03-10 19:25:00,44.1,40.5,30.36,North,-999,0.0,0.0,87,0.00,,,-99.99,FreeWX-Wi 1.01,2013-03-11 02:25:00,
2013-03-10 19:30:00,44.1,40.5,30.36,North,-999,0.0,0.0,87,0.00,,,-99.99,FreeWX-Wi 1.01,2013-03-11 02:30:00,
2013-03-10 19:35:00,44.1,40.5,-100.00,North,-999,0.0,0.0,87,0.00,,,-99.99,FreeWX-Wi 1.01,2013-03-11 02:35:00,
2013-03-10 19:45:00,43.9,40.6,30.36,North,-999,0.0,0.0,88,0.00,,,-99.99,FreeWX-Wi 1.01,2013-03-11 02:45:00,
2013-03-10 19:50:00,43.9,40.6,30.36,North,-999,0.0,0.0,88,0.00,,,-99.99,FreeWX-Wi 1.01,2013-03-11 02:50:00,
2013-03-10 19:55:00,43.9,40.8,-100.00,North,-999,0.0,0.0,89,0.00,,,-99.99,FreeWX-Wi 1.01,2013-03-11 02:55:00,
2013-03-10 20:05:00,43.9,41.2,30.33,North,-999,0.0,0.0,90,0.00,,,-99.99,FreeWX-Wi 1.01,2013-03-11 03:05:00,
2013-03-10 20:10:00,43.9,41.2,30.36,North,-999,0.0,0.0,90,0.00,,,-99.99,FreeWX-Wi 1.01,2013-03-11 03:10:00,
2013-03-10 20:15:00,43.9,41.2,-100.00,North,-999,0.0,0.0,90,0.00,,,-99.99,FreeWX-Wi 1.01,2013-03-11 03:15:00,
2013-03-10 20:20:00,43.7,41.0,-100.00,North,-999,0.0,0.0,90,0.00,,,-99.99,FreeWX-Wi 1.01,2013-03-11 03:20:00,
2013-03-10 20:25:00,43.7,41.0,30.36,North,-999,0.0,0.0,90,0.00,,,-99.99,FreeWX-Wi 1.01,2013-03-11 03:25:00,
2013-03-10 20:30:00,43.7,41.0,30.36,North,-999,0.0,0.0,90,0.00,,,-99.99,FreeWX-Wi 1.01,2013-03-11 03:30:00,
2013-03-10 20:35:00,43.5,41.0,30.36,North,-999,0.0,0.0,91,0.00,,,-99.99,FreeWX-Wi 1.01,2013-03-11 03:35:00,
2013-03-10 20:50:00,43.5,41.0,-100.00,North,-999,0.0,0.0,91,0.00,,,-99.99,FreeWX-Wi 1.01,2013-03-11 03:50:00,
2013-03-10 21:00:00,43.5,41.4,-100.00,North,-999,0.0,0.0,92,0.00,,,-99.99,FreeWX-Wi 1.01,2013-03-11 04:00:00,
2013-03-10 21:05:00,43.5,41.4,-100.00,North,-999,0.0,0.0,92,0.00,,,-99.99,FreeWX-Wi 1.01,2013-03-11 04:05:00,
2013-03-10 21:10:00,43.5,41.4,30.36,North,-999,0.0,0.0,92,0.00,,,-99.99,FreeWX-Wi 1.01,2013-03-11 04:10:00,
2013-03-10 21:20:00,43.3,41.2,30.36,North,-999,0.0,0.0,92,0.00,,,-99.99,FreeWX-Wi 1.01,2013-03-11 04:20:00,
2013-03-10 21:25:00,43.3,41.2,30.36,North,-999,0.0,0.0,92,0.00,,,-99.99,FreeWX-Wi 1.01,2013-03-11 04:25:00,
2013-03-10 21:30:00,43.3,41.2,30.36,North,-999,0.0,0.0,92,0.00,,,-99.99,FreeWX-Wi 1.01,2013-03-11 04:30:00,
2013-03-10 21:35:00,43.5,41.7,-100.00,North,-999,0.0,0.0,93,0.00,,,-99.99,FreeWX-Wi 1.01,2013-03-11 04:35:00,
2013-03-10 21:51:00,43.3,41.5,-100.00,North,-999,0.0,0.0,93,0.00,,,-99.99,FreeWX-Wi 1.01,2013-03-11 04:51:00,
2013-03-10 22:11:00,43.3,41.7,30.36,North,-999,0.0,0.0,94,0.00,,,-99.99,FreeWX-Wi 1.01,2013-03-11 05:11:00,
2013-03-10 22:16:00,43.3,41.7,-100.00,North,-999,0.0,0.0,94,0.00,,,-99.99,FreeWX-Wi 1.01,2013-03-11 05:16:00,
2013-03-10 22:21:00,43.2,41.5,30.36,North,-999,0.0,0.0,94,0.00,,,-99.99,FreeWX-Wi 1.01,2013-03-11 05:21:00,
2013-03-10 22:26:00,43.2,41.5,30.36,North,-999,0.0,0.0,94,0.00,,,-99.99,FreeWX-Wi 1.01,2013-03-11 05:26:00,
2013-03-10 22:31:00,43.2,41.5,-100.00,North,-999,0.0,2.2,94,0.00,,,-99.99,FreeWX-Wi 1.01,2013-03-11 05:31:00,
2013-03-10 22:36:00,43.2,41.5,-100.00,North,-999,0.0,0.0,94,0.00,,,-99.99,FreeWX-Wi 1.01,2013-03-11 05:36:00,
2013-03-10 22:51:00,43.0,41.7,30.36,North,-999,0.0,0.0,95,0.00,,,-99.99,FreeWX-Wi 1.01,2013-03-11 05:51:00,
2013-03-10 23:01:00,43.0,41.7,-100.00,North,-999,0.0,0.0,95,0.00,,,-99.99,FreeWX-Wi 1.01,2013-03-11 06:01:00,
2013-03-10 23:06:00,43.0,41.7,-100.00,North,-999,0.0,2.7,95,0.00,,,-99.99,FreeWX-Wi 1.01,2013-03-11 06:06:00,
2013-03-10 23:11:00,42.8,41.5,-100.00,North,-999,0.0,0.0,95,0.00,,,-99.99,FreeWX-Wi 1.01,2013-03-11 06:11:00,
2013-03-10 23:16:00,42.8,41.5,30.36,North,-999,0.0,0.0,95,0.00,,,-99.99,FreeWX-Wi 1.01,2013-03-11 06:16:00,
2013-03-10 23:21:00,42.8,41.5,-100.00,North,-999,0.0,0.0,95,0.00,,,-99.99,FreeWX-Wi 1.01,2013-03-11 06:21:00,
2013-03-10 23:26:00,42.8,41.5,30.36,North,-999,0.0,0.0,95,0.00,,,-99.99,FreeWX-Wi 1.01,2013-03-11 06:26:00,
2013-03-10 23:31:00,42.8,41.5,-100.00,North,-999,0.0,0.0,95,0.00,,,-99.99,FreeWX-Wi 1.01,2013-03-11 06:31:00,
2013-03-10 23:42:00,42.6,41.5,-100.00,North,-999,0.0,0.0,96,0.00,,,-99.99,FreeWX-Wi 1.01,2013-03-11 06:42:00,
2013-03-10 23:47:00,42.6,41.5,30.39,North,-999,0.0,2.7,96,0.00,,,-99.99,FreeWX-Wi 1.01,2013-03-11 06:47:00,
2013-03-10 23:52:00,42.4,41.4,30.39,North,-999,0.0,0.0,96,0.00,,,-99.99,FreeWX-Wi 1.01,2013-03-11 06:52:00,
2013-03-10 23:57:00,42.6,41.5,-100.00,North,-999,0.0,0.0,96,0.00,,,-99.99,FreeWX-Wi 1.01,2013-03-11 06:57:00,